{"data":{"norad_id":68200,"intl_designator":"2026-052C","name":"2026-052C","alt_names":[],"object_type":"PAYLOAD","status":"ACTIVE","operator":null,"country":"PRC","launch_date":"2026-03-16","launch_site_code":"JSC","launch_vehicle":null,"mission":null,"orbit_class":"UNKNOWN","rcs_meters":null,"size_class":null,"mass_kg":null,"dimensions":null,"purposes":[],"wikipedia_slug":null,"has_3d_model":false,"image_url":null,"decayed_at":null,"tle_current":{"epoch":"2026-09-19T22:18:23.679936Z","epoch_age_seconds":124709,"freshness":"FRESH","line1":"1 68200U 26052C   26262.92944074  .00001645  00000+0  10220-3 0  9991","line2":"2 68200  97.5285 336.2379 0001209  94.8586 265.2782 15.11056435 28349","mean_motion":15.11056435,"eccentricity":0.0001209,"inclination_deg":97.5285,"raan_deg":336.2379,"arg_perigee_deg":94.8586,"mean_anomaly_deg":265.2782,"bstar":0.0001022,"rev_number":2834,"period_min":95.297565772254,"perigee_km":532.1413626194,"apogee_km":533.81246996436,"semimajor_km":6911.1139162919,"source":"CELESTRAK","updated_at":"2026-09-20T09:00:24.068032Z"}}}